Weather History for Miles City, MT

Change the Weather History Date:

Wednesday, September 28, 2011

  Actual Average Record
Temperature  
Mean Temperature 65 °F 54 °F  
Max Temperature 78 °F 68 °F 95 °F (2001)
Min Temperature 51 °F 41 °F 26 °F (1972)
Degree Days  
Heating Degree Days 0 11  
Month to date heating degree days 91 178  
Since 1 July heating degree days 91 212  
Cooling Degree Days 0 0  
Month to date cooling degree days 65 56  
Year to date cooling degree days 727 728  
Growing Degree Days 16 (Base 50)    
Moisture  
Dew Point 34 °F    
Average Humidity 37    
Maximum Humidity 55    
Minimum Humidity 19    
Precipitation  
Precipitation 0.00 in 0.04 in 0.18 in (1983)
Month to date precipitation 0.27 1.01  
Year to date precipitation 17.77 10.77  
Sea Level Pressure  
Sea Level Pressure 30.04 in    
Wind  
Wind Speed 13 mph (NNW)    
Max Wind Speed 25 mph    
Max Gust Speed 32 mph    
Visibility 10 miles    
Events      
T = Trace of Precipitation, MM = Missing Value Source: NWS Daily Summary

Daily Weather History Graph

Daily Weather History Graph

Search for Another Location

Airport:

Trip Planner

Search our weather history database for the weather conditions in past years. The results will help you decide how hot, cold, wet, or windy it might be!

Date:

Astronomy

Sep. 28, 2011 Rise Set
Actual Time 6:57 AM MDT 6:49 PM MDT
Civil Twilight 6:27 AM MDT 7:19 PM MDT
Nautical Twilight 5:52 AM MDT 7:54 PM MDT
Astronomical Twilight 5:16 AM MDT 8:30 PM MDT
Moon 8:40 AM MDT (9/28) 7:09 PM MDT (9/28)
Length of Visible Light 12h 51m
Length of Day
11h 51m
New Moon, 3% of the Moon is Illuminated
Sep 28
New Moon
Oct 3
First Quarter
Oct 11
Full
Oct 19
Last Quarter
Oct 26
New

Hourly Weather History & Observations

Time (MDT) Temp. Dew Point Humidity Pressure Visibility Wind Dir Wind Speed Gust Speed Precip Events Conditions
12:53 AM 64.0 °F 37.0 °F 37% 29.81 in 10.0 mi SSE 12.7 mph - N/A   Clear
1:53 AM 59.0 °F 35.1 °F 41% 29.84 in 10.0 mi NW 9.2 mph - N/A   Clear
2:53 AM 61.0 °F 36.0 °F 39% 29.85 in 10.0 mi North 10.4 mph - N/A   Clear
3:53 AM 66.0 °F 39.9 °F 38% 29.85 in 10.0 mi North 10.4 mph - N/A   Clear
4:53 AM 66.2 °F 41.0 °F 40% 29.95 in 10.0 mi North 13.8 mph - N/A   Clear
5:53 AM 63.0 °F 39.9 °F 43% 29.93 in 10.0 mi NW 5.8 mph - N/A   Clear
6:53 AM 57.0 °F 41.0 °F 55% 29.98 in 10.0 mi WNW 9.2 mph - N/A   Clear
7:53 AM 60.8 °F 42.8 °F 52% 30.04 in 10.0 mi WNW 5.8 mph - N/A   Clear
8:53 AM 63.0 °F 43.0 °F 48% 30.03 in 10.0 mi NW 5.8 mph - N/A   Clear
9:53 AM 70.0 °F 39.0 °F 32% 30.04 in 10.0 mi North 15.0 mph 19.6 mph N/A   Clear
10:53 AM 71.1 °F 39.0 °F 31% 30.05 in 10.0 mi NNW 15.0 mph 19.6 mph N/A   Clear
11:53 AM 73.0 °F 36.0 °F 26% 30.04 in 10.0 mi NW 12.7 mph 17.3 mph N/A   Clear
12:53 PM 73.9 °F 34.0 °F 23% 30.04 in 10.0 mi NNW 10.4 mph - N/A   Clear
1:53 PM 75.9 °F 36.0 °F 23% 30.03 in 10.0 mi NW 13.8 mph 19.6 mph N/A   Clear
2:53 PM 77.0 °F 35.1 °F 22% 30.02 in 10.0 mi NNW 13.8 mph 25.3 mph N/A   Clear
3:53 PM 75.9 °F 35.1 °F 23% 30.03 in 10.0 mi NNW 15.0 mph 24.2 mph N/A   Clear
4:53 PM 75.9 °F 36.0 °F 23% 30.03 in 10.0 mi NNW 13.8 mph 23.0 mph N/A   Clear
5:53 PM 71.1 °F 33.1 °F 25% 30.07 in 10.0 mi North 17.3 mph - N/A   Clear
6:53 PM 66.9 °F 30.0 °F 25% 30.13 in 10.0 mi North 21.9 mph 29.9 mph N/A   Mostly Cloudy
7:53 PM 64.9 °F 27.0 °F 24% 30.17 in 10.0 mi North 19.6 mph 26.5 mph N/A   Mostly Cloudy
8:53 PM 64.0 °F 21.9 °F 20% 30.20 in 10.0 mi NNW 16.1 mph 25.3 mph N/A   Overcast
9:53 PM 62.1 °F 21.9 °F 21% 30.23 in 10.0 mi NNW 13.8 mph - N/A   Overcast
10:53 PM 55.9 °F 23.0 °F 28% 30.26 in 10.0 mi NW 11.5 mph - N/A   Mostly Cloudy
11:53 PM 54.0 °F 23.0 °F 30% 30.29 in 10.0 mi NW 10.4 mph - N/A   Clear